{"data":{"norad_id":58385,"epoch":"2026-05-24T21:13:13.610784Z","epoch_age_seconds":75134,"freshness":"FRESH","line1":"1 58385U 23178M   26144.88418531 -.00001711  00000+0 -39567-4 0  9990","line2":"2 58385  53.1605   5.9902 0001249  75.8673 284.2468 15.34371562141443","mean_motion":15.34371562,"eccentricity":0.0001249,"inclination_deg":53.1605,"raan_deg":5.9902,"arg_perigee_deg":75.8673,"mean_anomaly_deg":284.2468,"bstar":-3.9567e-5,"rev_number":14144,"period_min":93.849497453082,"perigee_km":461.93333373843,"apogee_km":463.64219674479,"semimajor_km":6840.9247652416,"source":"CELESTRAK","updated_at":"2026-05-25T13:38:18.614154Z"}}